Time,TemperatureF,DewpointF,PressureIn,WindDirection,WindDirectionDegrees,WindSpeedMPH,WindSpeedGustMPH,Humidity,HourlyPrecipIn,Conditions,Clouds,dailyrainin,SoftwareType,DateUTC
2013-10-10 00:00:00,56.4,41.8,29.97,North,-999,0.0,0.0,58,0.00,,,-99.99,WeatherLink 5.6,2013-10-10 04:00:00,
2013-10-10 00:30:00,55.7,41.1,29.96,North,-999,0.0,0.0,58,0.00,,,-99.99,WeatherLink 5.6,2013-10-10 04:30:00,
2013-10-10 01:00:00,54.7,41.1,29.96,North,-999,0.0,0.0,60,0.00,,,-99.99,WeatherLink 5.6,2013-10-10 05:00:00,
2013-10-10 01:30:00,54.9,41.3,29.96,North,-999,0.0,0.0,60,0.00,,,-99.99,WeatherLink 5.6,2013-10-10 05:30:00,
2013-10-10 02:00:00,55.1,41.0,29.96,North,-999,0.0,0.0,59,0.00,,,-99.99,WeatherLink 5.6,2013-10-10 06:00:00,
2013-10-10 02:30:00,52.4,41.4,29.96,North,-999,0.0,0.0,66,0.00,,,-99.99,WeatherLink 5.6,2013-10-10 06:30:00,
2013-10-10 03:00:00,52.6,43.8,29.94,North,-999,0.0,0.0,72,0.00,,,-99.99,WeatherLink 5.6,2013-10-10 07:00:00,
2013-10-10 03:30:00,52.0,45.0,29.94,North,-999,0.0,0.0,77,0.00,,,-99.99,WeatherLink 5.6,2013-10-10 07:30:00,
2013-10-10 04:00:00,52.6,43.1,29.94,North,-999,0.0,0.0,70,0.00,,,-99.99,WeatherLink 5.6,2013-10-10 08:00:00,
2013-10-10 04:30:00,54.0,41.7,29.94,North,-999,0.0,0.0,63,0.00,,,-99.99,WeatherLink 5.6,2013-10-10 08:30:00,
2013-10-10 05:00:00,55.1,42.7,29.94,North,-999,0.0,0.0,63,0.00,,,-99.99,WeatherLink 5.6,2013-10-10 09:00:00,
2013-10-10 05:30:00,55.5,42.7,29.94,North,-999,0.0,0.0,62,0.00,,,-99.99,WeatherLink 5.6,2013-10-10 09:30:00,
2013-10-10 06:00:00,55.5,42.3,29.94,North,-999,0.0,0.0,61,0.00,,,-99.99,WeatherLink 5.6,2013-10-10 10:00:00,
2013-10-10 06:30:00,55.1,41.5,29.96,North,-999,0.0,0.0,60,0.00,,,-99.99,WeatherLink 5.6,2013-10-10 10:30:00,
2013-10-10 07:00:00,53.2,41.7,29.97,North,-999,0.0,0.0,65,0.00,,,-99.99,WeatherLink 5.6,2013-10-10 11:00:00,
2013-10-10 07:30:00,52.2,42.0,29.98,North,-999,0.0,0.0,68,0.00,,,-99.99,WeatherLink 5.6,2013-10-10 11:30:00,
2013-10-10 08:00:00,52.6,42.3,29.98,North,-999,0.0,0.0,68,0.00,,,-99.99,WeatherLink 5.6,2013-10-10 12:00:00,
2013-10-10 08:30:00,53.8,43.1,29.99,North,-999,0.0,0.0,67,0.00,,,-99.99,WeatherLink 5.6,2013-10-10 12:30:00,
2013-10-10 09:00:00,54.3,44.0,29.99,NNW,337,0.0,1.0,68,0.00,,,-99.99,WeatherLink 5.6,2013-10-10 13:00:00,
2013-10-10 09:30:00,55.8,44.2,29.98,WNW,292,1.0,4.0,65,0.00,,,-99.99,WeatherLink 5.6,2013-10-10 13:30:00,
2013-10-10 10:00:00,56.1,46.4,29.99,NNW,337,0.0,3.0,70,0.00,,,-99.99,WeatherLink 5.6,2013-10-10 14:00:00,
2013-10-10 10:30:00,56.9,48.0,30.00,NW,315,1.0,5.0,72,0.00,,,-99.99,WeatherLink 5.6,2013-10-10 14:30:00,
2013-10-10 11:00:00,57.8,48.5,29.99,NW,315,0.0,3.0,71,0.00,,,-99.99,WeatherLink 5.6,2013-10-10 15:00:00,
2013-10-10 11:30:00,59.4,48.0,29.99,North,0,0.0,5.0,66,0.00,,,-99.99,WeatherLink 5.6,2013-10-10 15:30:00,
2013-10-10 12:00:00,60.1,46.2,29.99,NNW,337,1.0,10.0,60,0.00,,,-99.99,WeatherLink 5.6,2013-10-10 16:00:00,
2013-10-10 12:30:00,61.1,47.1,29.98,NW,315,1.0,4.0,60,0.00,,,-99.99,WeatherLink 5.6,2013-10-10 16:30:00,
2013-10-10 13:00:00,61.3,45.0,29.97,North,0,1.0,12.0,55,0.00,,,-99.99,WeatherLink 5.6,2013-10-10 17:00:00,
2013-10-10 13:30:00,62.0,47.0,29.97,North,0,1.0,5.0,58,0.00,,,-99.99,WeatherLink 5.6,2013-10-10 17:30:00,
2013-10-10 14:00:00,61.8,47.3,29.96,North,0,1.0,7.0,59,0.00,,,-99.99,WeatherLink 5.6,2013-10-10 18:00:00,
2013-10-10 14:30:00,61.5,47.9,29.96,North,0,1.0,7.0,61,0.00,,,-99.99,WeatherLink 5.6,2013-10-10 18:30:00,
2013-10-10 15:00:00,62.1,48.0,29.95,NW,315,1.0,7.0,60,0.00,,,-99.99,WeatherLink 5.6,2013-10-10 19:00:00,
2013-10-10 15:30:00,63.0,50.2,29.95,NNW,337,1.0,6.0,63,0.00,,,-99.99,WeatherLink 5.6,2013-10-10 19:30:00,
2013-10-10 16:00:00,63.6,51.2,29.93,NNW,337,1.0,5.0,64,0.00,,,-99.99,WeatherLink 5.6,2013-10-10 20:00:00,
2013-10-10 16:30:00,63.0,51.0,29.92,West,270,1.0,6.0,65,0.00,,,-99.99,WeatherLink 5.6,2013-10-10 20:30:00,
2013-10-10 17:00:00,63.9,51.1,29.92,WNW,292,1.0,6.0,63,0.00,,,-99.99,WeatherLink 5.6,2013-10-10 21:00:00,
2013-10-10 17:30:00,64.2,52.2,29.91,North,0,0.0,3.0,65,0.00,,,-99.99,WeatherLink 5.6,2013-10-10 21:30:00,
2013-10-10 18:00:00,63.4,51.8,29.91,WNW,292,0.0,4.0,66,0.00,,,-99.99,WeatherLink 5.6,2013-10-10 22:00:00,
2013-10-10 18:30:00,60.9,50.3,29.92,NNW,337,0.0,3.0,68,0.00,,,-99.99,WeatherLink 5.6,2013-10-10 22:30:00,
2013-10-10 19:00:00,58.4,49.4,29.93,North,-999,0.0,0.0,72,0.00,,,-99.99,WeatherLink 5.6,2013-10-10 23:00:00,
2013-10-10 19:30:00,56.6,49.1,29.93,North,-999,0.0,0.0,76,0.00,,,-99.99,WeatherLink 5.6,2013-10-10 23:30:00,
2013-10-10 20:00:00,56.2,48.4,29.94,North,-999,0.0,0.0,75,0.00,,,-99.99,WeatherLink 5.6,2013-10-11 00:00:00,
2013-10-10 20:30:00,56.0,47.8,29.93,North,-999,0.0,0.0,74,0.00,,,-99.99,WeatherLink 5.6,2013-10-11 00:30:00,
2013-10-10 21:00:00,55.6,47.8,29.93,North,-999,0.0,0.0,75,0.00,,,-99.99,WeatherLink 5.6,2013-10-11 01:00:00,
2013-10-10 21:30:00,56.1,47.6,29.93,North,-999,0.0,0.0,73,0.00,,,-99.99,WeatherLink 5.6,2013-10-11 01:30:00,
2013-10-10 22:00:00,55.8,48.0,29.92,North,-999,0.0,0.0,75,0.00,,,-99.99,WeatherLink 5.6,2013-10-11 02:00:00,
2013-10-10 22:30:00,55.6,48.2,29.92,North,-999,0.0,0.0,76,0.00,,,-99.99,WeatherLink 5.6,2013-10-11 02:30:00,
2013-10-10 23:00:00,54.8,47.7,29.91,North,-999,0.0,0.0,77,0.00,,,-99.99,WeatherLink 5.6,2013-10-11 03:00:00,
2013-10-10 23:30:00,54.4,47.3,29.91,North,-999,0.0,0.0,77,0.00,,,-99.99,WeatherLink 5.6,2013-10-11 03:30:00,